Probability
0 0 0 0 0 0 0 0 0 0 0 0 0 0 0 0 3 3 3 3 3 0 3 3 0 0 0 0 0 0 0 0 0 0 0 0 0 0 0 0 0 0 0 0
0 0 0 0 0 0 0 0 0 0 0 0 0 0 0 0 3 3 3 3 3 3 3 3 0 0 0 0 0 0 0 0 0 0 0 0 0 0 0 0 0 0 0 0
0 0 0 0 0 0 0 0 0 0 0 0 0 0 0 0 0 0 3 3 3 3 3 3 6 3 0 0 0 0 0 0 0 0 0 0 0 0 0 0 0 0 0 0
0 0 0 0 0 0 0 0 0 0 0 0 0 0 0 0 0 0 0 0 0 3 3 3 6 6 3 3 0 0 0 0 0 0 0 0 0 0 0 0 0 0 0 0
0 0 0 0 0 0 0 0 0 0 0 0 0 0 0 0 0 0 0 0 0 3 3 3 3 3 3 3 0 0 0 0 0 0 0 0 0 0 0 0 0 0 0 0
0 0 0 0 0 0 0 0 0 0 0 0 0 0 0 0 0 0 0 0 0 0 3 3 3 0 0 3 0 0 0 0 0 0 0 0 0 0 0 0 0 0 0 0
0 0 0 0 0 0 0 0 0 0 0 0 0 0 0 0 0 0 0 0 0 0 0 0 3 3 0 0 0 3 0 0 0 0 0 0 0 0 0 0 0 0 0 0
0 0 0 0 0 0 0 0 0 0 0 0 0 0 0 0 0 0 0 0 0 0 0 0 0 0 3 0 3 3 3 3 3 0 0 0 0 0 0 0 0 0 0 0
0 0 0 0 0 0 0 0 0 0 0 0 0 0 0 0 0 0 0 0 0 0 3 0 0 0 6 6 3 3 3 3 3 3 3 0 0 0 0 0 0 0 0 0
0 0 0 0 0 0 0 0 0 0 0 0 0 0 0 0 0 0 0 0 0 0 3 0 0 6 6 6 3 3 3 3 3 3 3 0 0 0 0 0 0 0 0 0
0 0 0 0 0 0 0 0 0 0 0 0 0 0 0 0 0 0 0 0 0 0 3 0 0 3 3 6 6 3 3 3 3 3 3 3 0 0 0 0 0 0 0 0
0 0 0 0 0 0 0 0 0 0 0 0 0 0 0 0 0 0 0 0 0 0 0 0 0 3 3 3 3 3 3 3 3 3 0 0 0 0 0 0 0 0 0 0
0 0 0 0 0 0 0 0 0 0 0 0 0 0 0 0 0 0 0 0 0 0 0 0 0 3 3 3 3 3 3 3 3 3 0 0 0 0 0 0 0 0 0 0
0 0 0 0 0 0 0 0 0 0 0 0 0 0 0 0 0 0 0 0 0 0 0 0 0 0 3 3 3 3 3 3 3 3 3 3 0 0 0 0 0 0 0 0
0 0 0 0 0 0 0 0 0 0 0 0 0 0 0 0 0 0 0 0 0 0 0 0 0 0 0 3 3 3 3 3 3 3 3 3 3 3 0 0 0 0 0 0
0 0 0 0 0 0 0 0 0 0 0 0 0 0 0 0 0 0 0 0 0 0 0 0 0 0 0 0 3 3 3 3 3 3 3 3 3 3 3 0 0 0 0 0
0 0 0 0 0 0 0 0 0 0 0 0 0 0 0 0 0 0 0 0 0 0 0 0 0 0 0 0 0 3 3 3 3 3 3 3 3 3 3 3 0 0 0 0
0 0 0 0 0 0 0 0 0 0 0 0 0 0 0 0 0 0 0 0 0 0 0 0 0 0 0 0 0 0 3 3 3 3 3 3 3 3 3 3 3 0 0 0
0 0 0 0 0 0 0 0 0 0 0 0 0 0 0 0 0 0 0 0 0 0 0 0 0 0 0 0 0 0 0 0 3 3 3 3 3 3 3 3 3 3 0 0
0 0 0 0 0 0 0 0 0 0 0 0 0 0 0 0 0 0 0 0 0 0 0 0 0 0 0 0 0 0 0 0 0 3 3 3 3 3 3 3 3 3 3 0
0 0 0 0 0 0 0 0 0 0 0 0 0 0 0 0 0 0 0 0 0 0 0 0 0 0 0 0 0 0 0 0 0 0 3 3 3 3 3 3 3 3 3 0
0 0 0 0 0 0 0 0 0 0 0 0 0 0 0 0 0 0 0 0 0 0 0 0 0 0 0 0 0 0 0 0 0 0 0 3 3 3 3 3 3 3 3 0
0 0 0 0 0 0 0 0 0 0 0 0 0 0 0 0 0 0 0 0 0 0 0 0 0 0 0 0 0 0 0 0 0 0 0 0 3 3 3 3 3 3 3 3
0 0 0 0 0 0 0 0 0 0 0 0 0 0 0 0 0 0 0 0 0 0 0 0 0 0 0 0 0 0 0 0 0 0 0 0 0 0 3 3 3 3 3 3
0 0 0 0 0 0 0 0 0 0 0 0 0 0 0 0 0 0 0 0 0 0 0 0 0 0 0 0 0 0 0 0 0 0 0 0 0 0 0 3 3 3 3 3
0 0 0 0 0 0 0 0 0 0 0 0 0 0 0 0 0 0 0 0 0 0 0 0 0 0 0 0 0 0 0 0 0 0 0 0 0 0 0 0 0 0 0 0
Height
5839 5839 5838 5838 5838 5838 5837 5837 5837 5837 5837 5837 5837 5837 5837 5837 5837 5836 5836 5836 5836 5836 5835 5835 5835 5835 5835 5835 5834 5834 5834 5834 5834 5834 5834 5834 5834 5833 5833 5833 5832 5832 5831 5830
5837 5837 5836 5835 5835 5835 5834 5835 5835 5835 5834 5834 5834 5834 5835 5834 5834 5834 5834 5833 5833 5833 5833 5833 5832 5832 5832 5832 5832 5832 5832 5832 5832 5832 5831 5831 5831 5831 5830 5830 5830 5829 5828 5827
5834 5835 5833 5833 5832 5832 5832 5832 5832 5832 5832 5832 5831 5832 5832 5832 5831 5831 5831 5831 5831 5830 5830 5830 5830 5829 5829 5829 5829 5829 5829 5829 5829 5829 5828 5828 5828 5828 5827 5827 5827 5826 5825 5825
5830 5830 5830 5830 5830 5829 5829 5830 5829 5829 5829 5829 5829 5828 5829 5829 5829 5829 5828 5828 5828 5827 5827 5827 5827 5827 5826 5826 5826 5826 5826 5826 5826 5826 5825 5825 5825 5824 5824 5824 5823 5823 5822 5821
5827 5827 5827 5827 5827 5826 5826 5826 5826 5826 5825 5825 5825 5825 5826 5825 5825 5826 5825 5825 5824 5824 5824 5824 5824 5824 5823 5823 5823 5823 5823 5823 5823 5822 5822 5822 5821 5821 5821 5820 5820 5819 5819 5818
5824 5824 5824 5824 5824 5823 5823 5824 5823 5823 5822 5822 5822 5821 5822 5822 5822 5822 5822 5821 5821 5821 5821 5820 5820 5820 5820 5820 5819 5820 5820 5819 5819 5819 5819 5818 5818 5817 5817 5816 5816 5815 5815 5814
5820 5820 5820 5820 5820 5820 5820 5820 5819 5818 5818 5818 5819 5817 5819 5819 5818 5818 5817 5817 5817 5817 5817 5817 5817 5816 5816 5816 5816 5816 5816 5816 5816 5815 5815 5814 5814 5814 5813 5812 5812 5811 5811 5810
5815 5816 5816 5816 5816 5816 5816 5816 5816 5815 5814 5814 5814 5813 5815 5815 5814 5814 5814 5813 5813 5813 5813 5813 5813 5813 5813 5813 5813 5813 5812 5812 5812 5811 5811 5810 5810 5809 5809 5808 5808 5807 5807 5806
5810 5812 5812 5812 5812 5812 5811 5811 5812 5811 5810 5810 5810 5810 5810 5810 5810 5810 5809 5809 5809 5809 5809 5809 5808 5808 5809 5809 5809 5809 5809 5808 5808 5807 5807 5806 5805 5805 5804 5804 5803 5802 5802 5801
5805 5807 5808 5808 5807 5807 5807 5807 5807 5806 5805 5805 5806 5805 5806 5806 5806 5806 5805 5804 5804 5804 5805 5805 5804 5804 5804 5805 5804 5805 5804 5804 5804 5803 5802 5801 5800 5800 5799 5799 5798 5797 5797 5796
5800 5801 5802 5802 5802 5802 5802 5802 5802 5802 5801 5801 5801 5804 5802 5802 5801 5801 5800 5800 5800 5800 5800 5800 5800 5800 5800 5800 5800 5800 5800 5800 5799 5798 5798 5796 5796 5795 5795 5794 5793 5793 5792 5791
5795 5796 5796 5798 5798 5797 5797 5797 5798 5798 5797 5797 5796 5800 5798 5797 5797 5796 5796 5796 5795 5795 5795 5795 5795 5796 5796 5796 5795 5795 5795 5795 5794 5793 5792 5792 5791 5790 5789 5789 5788 5788 5786 5785
5791 5791 5792 5792 5795 5793 5792 5793 5793 5793 5793 5792 5792 5795 5793 5792 5792 5792 5792 5791 5791 5790 5790 5790 5790 5790 5790 5790 5790 5790 5790 5789 5789 5788 5787 5786 5785 5785 5784 5783 5783 5782 5781 5780
5786 5786 5787 5788 5788 5788 5788 5788 5788 5788 5788 5787 5787 5788 5788 5788 5787 5787 5786 5786 5785 5785 5785 5784 5784 5784 5784 5784 5784 5784 5784 5784 5783 5782 5781 5781 5780 5779 5778 5777 5777 5776 5775 5774
5781 5781 5781 5782 5783 5783 5783 5783 5783 5783 5783 5783 5783 5782 5783 5782 5782 5782 5781 5781 5780 5780 5779 5779 5779 5779 5779 5778 5778 5778 5778 5778 5777 5776 5776 5775 5774 5773 5772 5771 5771 5770 5769 5768
5775 5776 5776 5777 5778 5778 5778 5778 5778 5778 5777 5777 5777 5777 5777 5776 5776 5776 5776 5775 5775 5774 5774 5773 5773 5773 5773 5772 5772 5772 5772 5772 5771 5770 5770 5769 5768 5767 5766 5765 5764 5764 5763 5762
5769 5770 5771 5772 5772 5772 5773 5774 5773 5772 5772 5772 5772 5773 5771 5771 5771 5771 5770 5770 5769 5769 5768 5768 5767 5766 5766 5766 5766 5766 5765 5765 5764 5764 5763 5762 5761 5760 5759 5758 5758 5757 5756 5756
5764 5764 5764 5765 5767 5766 5769 5767 5767 5767 5767 5766 5766 5766 5766 5766 5766 5765 5765 5764 5763 5763 5762 5762 5761 5760 5760 5759 5759 5759 5758 5758 5757 5757 5756 5755 5754 5753 5753 5752 5751 5750 5749 5749
5757 5758 5758 5759 5759 5760 5762 5762 5761 5761 5761 5761 5760 5760 5760 5760 5760 5759 5758 5758 5757 5757 5756 5756 5755 5754 5753 5752 5752 5751 5751 5751 5750 5750 5749 5749 5748 5747 5745 5745 5744 5743 5742 5742
5752 5752 5753 5753 5753 5754 5756 5755 5755 5756 5755 5755 5754 5754 5754 5753 5753 5754 5752 5751 5751 5750 5750 5749 5748 5747 5746 5745 5744 5744 5744 5743 5743 5743 5742 5741 5740 5739 5738 5737 5737 5736 5735 5734
5746 5746 5746 5746 5746 5747 5749 5748 5749 5750 5750 5749 5748 5747 5747 5747 5747 5746 5745 5745 5744 5743 5743 5742 5741 5740 5739 5738 5737 5737 5736 5736 5736 5735 5734 5733 5733 5732 5731 5730 5729 5728 5727 5727
5739 5739 5739 5739 5740 5742 5741 5741 5742 5742 5741 5741 5741 5740 5740 5740 5739 5739 5738 5738 5737 5736 5735 5734 5733 5733 5732 5731 5730 5730 5729 5729 5728 5727 5726 5725 5725 5724 5723 5722 5721 5720 5719 5719
5732 5733 5733 5734 5735 5734 5734 5734 5734 5734 5734 5734 5733 5733 5732 5732 5731 5731 5730 5729 5729 5728 5727 5726 5726 5725 5724 5723 5722 5722 5721 5721 5720 5719 5718 5717 5716 5715 5714 5713 5713 5712 5711 5710
5725 5725 5725 5726 5726 5726 5726 5726 5726 5726 5726 5726 5725 5725 5725 5724 5723 5723 5722 5721 5720 5719 5718 5718 5717 5716 5716 5715 5714 5713 5713 5712 5711 5711 5710 5709 5708 5707 5706 5704 5704 5703 5703 5702
5718 5717 5717 5718 5718 5718 5718 5718 5718 5718 5718 5718 5717 5717 5716 5716 5715 5715 5714 5713 5712 5711 5710 5709 5708 5708 5707 5706 5705 5704 5703 5703 5702 5701 5700 5700 5699 5698 5696 5696 5695 5694 5694 5694
5710 5710 5710 5710 5711 5710 5711 5710 5710 5710 5710 5709 5709 5709 5708 5707 5707 5706 5705 5704 5703 5702 5701 5700 5699 5698 5697 5697 5695 5695 5694 5693 5692 5691 5691 5690 5689 5688 5687 5686 5686 5685 5685 5684
Wind_Speed
8 7 6 5 6 6 6 6 6 6 6 7 6 6 6 6 6 6 6 7 7 7 7 7 7 7 7 7 7 7 7 7 7 7 7 8 8 8 8 8 9 9 10 10
9 8 7 7 7 8 8 8 8 8 8 8 8 8 7 7 7 6 6 7 7 7 7 7 7 8 8 8 8 8 8 8 8 8 8 8 9 9 9 9 10 10 10 11
9 8 8 9 9 9 9 9 9 8 8 9 10 9 7 7 7 7 7 7 8 8 8 8 8 8 9 8 8 9 9 10 10 10 9 9 10 10 10 10 10 11 11 11
10 10 10 9 9 10 10 10 10 10 10 10 10 10 8 8 7 7 8 8 8 9 9 9 9 9 9 9 9 10 10 10 10 10 11 11 11 11 11 11 11 11 12 12
10 10 10 10 10 10 10 11 11 10 11 12 12 12 10 10 9 8 8 9 9 10 10 10 10 10 9 10 10 10 10 10 11 12 12 12 12 12 12 12 12 12 13 13
11 11 10 10 10 11 11 11 12 12 13 13 12 12 11 11 10 10 9 10 10 11 11 10 11 12 11 11 10 10 11 11 11 12 12 12 12 12 13 13 13 13 13 13
12 12 12 11 11 11 12 13 13 14 14 14 12 13 12 11 11 11 11 11 11 11 11 11 11 12 11 11 11 11 12 12 12 12 13 13 13 14 13 13 13 13 13 14
14 14 13 12 12 13 13 14 14 15 15 15 14 14 12 13 13 12 12 13 13 12 12 11 12 12 12 12 12 12 12 12 13 13 13 14 14 14 14 13 13 13 14 14
14 14 14 14 14 14 14 15 15 16 16 16 15 15 14 13 13 12 12 13 13 12 12 11 12 13 13 13 13 13 13 13 13 13 14 14 15 15 14 14 14 15 15 15
15 15 14 14 15 15 15 15 15 16 17 17 17 15 14 14 13 13 13 13 13 12 12 12 12 13 13 14 14 14 14 14 14 14 14 15 15 15 15 15 15 16 16 16
15 15 15 15 16 15 15 14 15 16 17 17 17 16 14 14 14 14 13 14 14 13 13 13 13 13 14 14 14 14 15 15 15 15 15 15 15 15 15 15 16 16 17 17
16 16 15 15 15 15 15 14 14 15 16 17 18 17 15 15 15 15 14 14 14 15 14 14 14 14 14 15 15 15 15 15 16 16 16 16 16 16 16 16 16 17 17 17
16 16 15 14 15 15 15 14 15 15 17 18 19 18 17 17 15 15 16 15 16 15 14 15 15 15 15 15 16 16 16 17 17 17 17 17 17 17 17 18 18 18 18 18
16 17 17 16 15 15 15 15 15 16 18 18 19 18 18 18 17 16 16 16 16 17 16 16 16 17 16 16 17 17 17 18 18 18 18 18 18 18 18 19 19 19 19 19
17 18 18 18 16 16 16 16 16 17 18 19 18 19 17 17 18 18 17 16 17 17 18 17 17 17 17 17 18 18 18 18 19 19 19 19 18 19 19 20 20 21 21 20
18 18 18 17 17 17 17 17 18 18 18 19 18 18 17 17 18 18 17 18 18 18 18 18 18 19 19 19 19 19 19 19 19 20 20 20 19 19 20 20 20 21 21 20
18 18 18 18 18 18 18 17 18 18 18 19 19 18 18 17 17 17 17 18 20 20 20 20 20 20 20 21 21 20 20 20 20 21 21 21 21 21 21 21 21 22 22 21
19 19 19 19 19 20 18 18 19 19 19 19 19 19 18 17 17 18 18 19 19 20 21 21 21 22 22 23 22 22 21 21 22 22 22 22 22 22 22 22 22 22 22 22
19 20 20 20 21 21 20 20 19 19 19 20 20 20 20 19 19 20 20 21 20 21 22 22 23 23 23 23 23 22 22 23 23 22 23 23 24 24 24 23 23 23 22 22
19 19 21 22 21 22 21 21 21 21 21 20 20 21 21 22 20 19 21 21 22 22 23 23 23 23 22 23 22 22 23 24 24 23 23 24 24 24 24 24 24 24 24 24
19 20 20 22 22 22 22 22 22 22 21 21 22 23 23 23 22 21 21 22 23 23 24 24 24 23 23 23 24 23 24 24 24 24 25 25 25 25 25 25 25 26 25 25
20 21 22 22 22 22 22 22 23 23 23 23 23 24 25 25 24 24 23 23 24 25 25 25 25 25 25 25 25 25 25 25 25 25 26 27 27 26 26 26 26 26 27 26
21 22 23 23 22 23 23 23 23 23 24 24 24 24 24 25 25 25 25 25 25 26 26 26 26 26 26 26 26 26 26 26 26 26 27 27 27 27 27 27 27 27 27 27
22 23 24 24 24 24 24 24 24 24 24 24 25 25 25 25 26 26 26 27 27 27 27 27 27 27 27 28 27 27 27 27 27 28 28 28 28 28 28 28 27 27 27 27
24 24 24 24 24 25 25 25 25 25 25 25 25 26 26 26 26 27 27 28 28 28 28 28 28 28 28 28 28 28 28 27 28 28 28 29 29 29 28 28 28 29 29 29
25 26 26 25 25 25 25 26 26 26 26 26 26 27 28 28 27 28 28 28 28 29 29 29 29 29 29 28 28 28 28 28 28 28 29 29 29 30 29 29 29 30 31 31
Wind_Direction
267 267 269 269 264 265 271 272 265 263 259 262 265 270 272 274 271 272 275 279 283 284 282 281 282 278 273 274 275 277 277 277 278 276 276 273 272 273 276 281 286 290 291 292
266 269 270 265 262 263 266 271 267 263 263 265 265 268 270 268 269 274 280 284 284 284 281 279 279 278 275 272 273 273 274 272 273 274 272 273 272 272 275 279 282 287 290 293
268 270 267 263 263 264 265 267 267 266 268 266 268 268 274 269 267 271 282 285 283 282 283 279 280 281 281 273 273 275 272 271 272 274 275 276 276 274 275 279 282 287 290 293
261 263 263 262 263 265 264 265 266 270 273 273 274 270 271 272 268 270 279 284 284 282 282 281 278 280 282 278 273 274 272 271 273 273 274 278 278 277 278 279 281 284 287 290
261 263 263 264 268 268 269 269 269 270 272 274 276 275 272 271 269 273 278 282 284 283 280 281 279 278 279 283 275 276 276 273 274 275 275 275 277 279 280 281 282 284 288 290
258 258 261 264 266 267 267 266 265 265 270 269 274 272 267 268 274 278 278 281 281 283 281 281 278 275 275 278 276 280 278 276 276 277 275 274 275 277 280 282 282 284 286 287
253 253 254 256 259 263 266 265 264 264 269 270 272 268 270 270 273 279 281 281 283 281 279 278 275 273 272 271 274 277 276 277 277 278 277 276 276 278 279 281 282 283 283 283
256 254 254 255 259 266 268 268 268 271 273 275 274 269 275 277 276 279 279 279 280 277 272 274 274 272 271 269 269 274 276 277 279 279 279 279 279 279 279 280 281 281 281 281
257 258 257 259 261 265 268 269 270 270 272 272 271 275 277 278 277 275 275 275 274 272 267 268 271 273 272 271 268 271 276 278 279 281 280 279 279 279 279 280 280 281 281 280
262 261 259 260 261 262 264 267 266 266 271 272 272 277 281 277 277 278 275 274 274 270 265 263 264 267 268 270 271 270 274 278 279 280 281 282 281 280 279 280 281 282 282 281
263 264 261 258 258 258 259 259 262 266 269 271 273 275 281 278 278 278 276 274 271 268 263 258 260 262 265 268 269 271 272 275 277 279 280 281 281 281 279 278 279 281 282 282
259 263 261 259 259 257 256 258 262 265 268 269 271 271 273 276 276 275 275 272 271 267 263 259 259 259 263 267 269 274 274 275 276 277 279 279 280 281 279 278 279 281 282 282
256 257 259 256 254 256 255 256 259 263 266 270 271 271 271 275 274 273 272 270 273 266 264 264 258 259 263 266 268 271 275 277 276 276 277 277 278 279 278 277 278 281 281 281
254 255 257 259 259 258 257 259 261 263 266 270 273 275 272 271 273 274 273 274 274 269 271 269 263 261 262 262 265 270 274 277 276 276 277 276 278 280 279 277 277 279 280 280
253 256 257 259 259 257 258 262 265 267 268 271 273 275 275 272 273 274 276 277 277 273 271 270 267 264 264 265 266 269 272 274 276 278 277 277 279 280 278 276 276 277 278 279
255 255 256 258 260 259 259 262 265 267 268 269 271 272 273 271 272 274 275 279 281 277 275 275 272 268 265 266 267 269 271 273 276 277 278 280 280 279 279 278 277 277 278 279
254 256 256 256 257 259 259 260 264 265 266 269 271 271 272 270 272 274 276 279 281 278 277 279 279 276 270 269 270 269 272 274 275 277 279 279 279 279 279 277 278 278 277 277
255 258 257 257 256 258 262 261 263 266 266 266 269 272 271 270 271 274 275 278 279 279 278 278 278 277 274 272 271 271 273 275 276 276 277 278 279 280 279 278 277 278 278 277
255 256 259 259 259 260 264 265 265 266 265 264 266 270 272 271 270 273 276 278 279 278 278 278 276 276 275 274 271 269 272 274 275 275 275 276 278 279 278 279 278 277 278 277
257 258 258 259 260 261 263 266 266 266 264 263 264 266 269 270 269 270 273 275 277 278 278 276 275 275 276 275 275 272 272 273 274 275 275 275 277 278 279 278 278 277 277 277
259 260 261 260 260 262 264 266 265 265 266 265 263 264 267 269 271 271 271 272 275 277 276 275 275 274 276 274 275 275 274 274 274 274 274 275 276 277 278 277 277 277 278 277
260 263 263 263 262 262 263 265 266 267 266 266 267 267 267 267 269 271 272 272 273 274 274 275 275 273 274 273 273 272 271 272 272 273 273 274 275 275 276 276 275 275 276 277
259 264 264 264 266 266 266 267 268 269 269 268 269 269 270 270 270 272 274 274 274 274 274 274 274 272 271 272 273 273 271 271 271 272 273 274 273 275 275 276 276 274 274 275
258 261 264 264 263 265 267 269 270 270 271 272 272 272 271 271 271 273 276 277 275 274 275 275 275 273 272 272 272 273 272 272 271 272 273 273 274 275 275 275 274 273 274 275
260 262 263 264 265 264 265 268 269 269 270 272 273 273 272 272 273 274 276 277 277 276 277 277 276 275 274 272 272 272 273 273 273 273 274 273 274 273 273 272 273 274 275 276
261 262 263 264 264 265 266 267 268 269 270 271 272 274 274 274 274 274 275 276 277 277 277 277 276 276 276 275 273 272 272 272 273 274 275 274 274 274 274 274 273 275 275 275